Location: Izdebno
(52.6670°N, 16.2170°E)
Time: 13:00:30
(UTC+02:00)

A-11 Canister half - Pass Details

Date: 10 February 2023
Orbit: 1526 x 1682 km, 47.3° (Epoch: 26 March)

Event Time Altitude Azimuth Distance (km) Brightness Sun altitude
Rises 11:38:07 0° 283° (WNW) 4,709 11.3 22.6°
Reaches altitude 10° 11:43:05 10° 261° (W) 3,745 11.1 22.7°
Maximum altitude 11:47:27 14° 233° (SW) 3,440 11.4 22.8°
Drops below altitude 10° 11:51:52 10° 205° (SSW) 3,791 12.2 22.9°
Sets 11:57:00 0° 183° (S) 4,807 13.1 22.9°
